Simultaneous Nadir Overpasses (SNOs) Predictions

Prediction of SNOs between LANDSAT-8 and METOP-A Satellite Orbit:

Table of predicted SNOs for the next 14.0 days since TLE Epoch: 12/1/2018
Index Date (LANDSAT-8) Time (LANDSAT-8) Lat,Lon (LANDSAT-8) SZA (LANDSAT-8 ) Date (METOP-A) Time (METOP-A) Lat,Lon (METOP-A) SZA (METOP-A ) Distance(km) Time Diff (sec)
1 12/01/2018 17:49:07 -81.42, 137.94 74.04 12/01/2018 17:48:30 -81.42, 137.98 74.05 0.79 37
2 12/01/2018 18:38:33 81.43, -54.27 105.99 12/01/2018 18:39:10 81.42, -54.43 105.99 2.72 37
3 12/04/2018 13:23:22 -81.42,-155.74 73.69 12/04/2018 13:22:46 -81.42,-155.86 73.71 2.04 36
4 12/04/2018 14:12:48 81.42, 12.02 106.34 12/04/2018 14:13:25 81.43, 12.08 106.36 0.97 37
5 12/07/2018 08:57:35 -81.43, -89.08 73.35 12/07/2018 08:56:59 -81.42, -88.93 73.35 2.57 36
6 12/07/2018 09:47:01 81.43, 78.65 106.68 12/07/2018 09:47:39 81.43, 78.57 106.68 1.57 38
7 12/10/2018 04:31:50 -81.42, -22.86 73.13 12/10/2018 04:31:15 -81.42, -22.80 73.13 1.02 35
8 12/10/2018 05:21:16 81.42, 144.85 106.89 12/10/2018 05:21:55 81.42, 144.66 106.89 3.14 39
9 12/13/2018 00:06:04 -81.42, 43.70 72.92 12/13/2018 00:05:30 -81.42, 43.71 72.93 0.21 34




NCC Satellite Simultaneous Nadir Overpasses (SNOs) Prediction Service
